| time (UTC) | temp C | wind direction | speed KPH | gust KPH | rain 1hr cm | rain 24hr cm | rain mn cm | humidity % | barometer mb |
| 20260503225100 | 16 | 243 | 19.3 | 38.6 | 0.00 | 0.00 | 0.00 | 44 | 1011.8 |
| 20260503225051 | 16 | 234 | 6.4 | 11.3 | 0.00 | 0.00 | 0.00 | 44 | 1010.1 |
| 20260503224558 | 16 | 223 | 16.1 | 38.6 | 0.00 | 0.00 | 0.00 | 45 | 1011.8 |
| 20260503224100 | 16 | 234 | 16.1 | 33.8 | 0.00 | 0.00 | 0.00 | 45 | 1011.9 |
| 20260503224051 | 16 | 238 | 4.8 | 14.5 | 0.00 | 0.00 | 0.00 | 45 | 1010.1 |
| 20260503223600 | 16 | 209 | 17.7 | 33.8 | 0.00 | 0.00 | 0.00 | 45 | 1011.9 |
| 20260503223551 | 16 | 205 | 0.0 | 12.9 | 0.00 | 0.00 | 0.00 | 45 | 1010.1 |
| 20260503223100 | 16 | 260 | 19.3 | 32.2 | 0.00 | 0.00 | 0.00 | 45 | 1011.9 |
| 20260503223050 | 16 | 217 | 4.8 | 12.9 | 0.00 | 0.00 | 0.00 | 45 | 1010.2 |
| 20260503222559 | 16 | 232 | 14.5 | 38.6 | 0.00 | 0.00 | 0.00 | 45 | 1011.9 |
| 20260503222550 | 16 | 236 | 4.8 | 11.3 | 0.00 | 0.00 | 0.00 | 46 | 1010.1 |
| 20260503222100 | 16 | 246 | 11.3 | 38.6 | 0.00 | 0.00 | 0.00 | 45 | 1011.9 |
| 20260503222051 | 16 | 242 | 4.8 | 12.9 | 0.00 | 0.00 | 0.00 | 45 | 1010.1 |
| 20260503221558 | 16 | 217 | 19.3 | 35.4 | 0.00 | 0.00 | 0.00 | 44 | 1011.8 |
| 20260503221550 | 16 | 245 | 4.8 | 12.9 | 0.00 | 0.00 | 0.00 | 45 | 1010.2 |
| 20260503221059 | 16 | 205 | 16.1 | 46.7 | 0.00 | 0.00 | 0.00 | 45 | 1011.9 |
| 20260503221049 | 16 | 189 | 3.2 | 12.9 | 0.00 | 0.00 | 0.00 | 46 | 1010.2 |
| 20260503220602 | 16 | 209 | 22.5 | 46.7 | 0.00 | 0.00 | 0.00 | 43 | 1012.0 |
| 20260503220549 | 16 | 235 | 6.4 | 12.9 | 0.00 | 0.00 | 0.00 | 43 | 1010.2 |
| 20260503220105 | 16 | 207 | 16.1 | 49.9 | 0.00 | 0.00 | 0.00 | 44 | 1011.8 |
| 20260503220049 | 16 | 220 | 4.8 | 12.9 | 0.00 | 0.00 | 0.00 | 44 | 1010.2 |
| 20260503215558 | 16 | 215 | 20.9 | 49.9 | 0.00 | 0.00 | 0.00 | 43 | 1011.9 |
| 20260503215549 | 16 | 226 | 4.8 | 12.9 | 0.00 | 0.00 | 0.00 | 44 | 1010.3 |
| 20260503215100 | 17 | 216 | 14.5 | 37.0 | 0.00 | 0.00 | 0.00 | 43 | 1011.9 |
| 20260503215047 | 17 | 227 | 4.8 | 14.5 | 0.00 | 0.00 | 0.00 | 42 | 1010.3 |
| 20260503214602 | 17 | 242 | 17.7 | 37.0 | 0.00 | 0.00 | 0.00 | 43 | 1012.0 |
| 20260503214549 | 17 | 236 | 3.2 | 14.5 | 0.00 | 0.00 | 0.00 | 44 | 1010.3 |
| 20260503214104 | 16 | 219 | 16.1 | 37.0 | 0.00 | 0.00 | 0.00 | 42 | 1012.1 |
| 20260503214047 | 16 | 243 | 3.2 | 12.9 | 0.00 | 0.00 | 0.00 | 42 | 1010.2 |
| 20260503213603 | 16 | 235 | 19.3 | 37.0 | 0.00 | 0.00 | 0.00 | 40 | 1012.1 |
| 20260503213547 | 16 | 224 | 4.8 | 11.3 | 0.00 | 0.00 | 0.00 | 41 | 1010.4 |
| 20260503213112 | 17 | 237 | 20.9 | 41.8 | 0.00 | 0.00 | 0.00 | 41 | 1012.0 |
| 20260503213049 | 16 | 238 | 1.6 | 11.3 | 0.00 | 0.00 | 0.00 | 42 | 1010.3 |
| 20260503212600 | 17 | 240 | 24.1 | 41.8 | 0.00 | 0.00 | 0.00 | 41 | 1012.1 |
| 20260503212547 | 17 | 205 | 6.4 | 16.1 | 0.00 | 0.00 | 0.00 | 42 | 1010.3 |
| 20260503212058 | 17 | 228 | 22.5 | 43.5 | 0.00 | 0.00 | 0.00 | 43 | 1012.1 |
| 20260503212047 | 17 | 238 | 8.0 | 16.1 | 0.00 | 0.00 | 0.00 | 43 | 1010.3 |
| 20260503211604 | 17 | 242 | 0.0 | 14.5 | 0.00 | 0.00 | 0.00 | 44 | 1010.4 |
| 20260503211600 | 17 | 223 | 16.1 | 43.5 | 0.00 | 0.00 | 0.00 | 43 | 1012.2 |
| 20260503211100 | 17 | 215 | 22.5 | 43.5 | 0.00 | 0.00 | 0.00 | 40 | 1012.2 |
| 20260503211046 | 17 | 196 | 6.4 | 16.1 | 0.00 | 0.00 | 0.00 | 40 | 1010.4 |
| 20260503210600 | 17 | 232 | 14.5 | 41.8 | 0.00 | 0.00 | 0.00 | 41 | 1012.1 |
| 20260503210547 | 17 | 246 | 3.2 | 14.5 | 0.00 | 0.00 | 0.00 | 41 | 1010.5 |
| 20260503210104 | 17 | 219 | 22.5 | 57.9 | 0.00 | 0.00 | 0.00 | 42 | 1012.1 |
| 20260503210046 | 17 | 232 | 6.4 | 14.5 | 0.00 | 0.00 | 0.00 | 42 | 1010.4 |
| 20260503205600 | 17 | 220 | 19.3 | 57.9 | 0.00 | 0.00 | 0.00 | 41 | 1012.2 |
| 20260503205545 | 17 | 228 | 6.4 | 14.5 | 0.00 | 0.00 | 0.00 | 42 | 1010.5 |
| 20260503205103 | 17 | 244 | 20.9 | 57.9 | 0.00 | 0.00 | 0.00 | 41 | 1012.2 |
| 20260503205045 | 17 | 240 | 4.8 | 17.7 | 0.00 | 0.00 | 0.00 | 41 | 1010.4 |
| 20260503204608 | 17 | 213 | 20.9 | 41.8 | 0.00 | 0.00 | 0.00 | 42 | 1012.2 |
| 20260503204545 | 17 | 238 | 8.0 | 17.7 | 0.00 | 0.00 | 0.00 | 40 | 1010.5 |
| 20260503204102 | 17 | 210 | 22.5 | 43.5 | 0.00 | 0.00 | 0.00 | 42 | 1012.1 |
| 20260503204044 | 17 | 238 | 4.8 | 12.9 | 0.00 | 0.00 | 0.00 | 41 | 1010.5 |
| 20260503203559 | 17 | 243 | 17.7 | 43.5 | 0.00 | 0.00 | 0.00 | 41 | 1012.2 |
| 20260503203544 | 17 | 197 | 3.2 | 11.3 | 0.00 | 0.00 | 0.00 | 42 | 1010.6 |
| 20260503203111 | 17 | 236 | 20.9 | 45.1 | 0.00 | 0.00 | 0.00 | 41 | 1012.2 |
| 20260503203049 | 17 | 232 | 6.4 | 14.5 | 0.00 | 0.00 | 0.00 | 41 | 1010.7 |
| 20260503202600 | 17 | 198 | 20.9 | 45.1 | 0.00 | 0.00 | 0.00 | 40 | 1012.3 |
| 20260503202545 | 17 | 194 | 4.8 | 12.9 | 0.00 | 0.00 | 0.00 | 41 | 1010.8 |
| 20260503202059 | 17 | 194 | 19.3 | 35.4 | 0.00 | 0.00 | 0.00 | 42 | 1012.3 |
| 20260503202043 | 17 | 205 | 4.8 | 12.9 | 0.00 | 0.00 | 0.00 | 42 | 1010.8 |
| 20260503201606 | 17 | 238 | 17.7 | 41.8 | 0.00 | 0.00 | 0.00 | 42 | 1012.3 |
| 20260503201542 | 17 | 221 | 0.0 | 12.9 | 0.00 | 0.00 | 0.00 | 42 | 1010.8 |
| 20260503201058 | 17 | 240 | 16.1 | 41.8 | 0.00 | 0.00 | 0.00 | 42 | 1012.3 |
| 20260503201044 | 17 | 227 | 1.6 | 17.7 | 0.00 | 0.00 | 0.00 | 44 | 1010.8 |
| 20260503200602 | 17 | 196 | 20.9 | 41.8 | 0.00 | 0.00 | 0.00 | 41 | 1012.4 |
| 20260503200541 | 17 | 255 | 6.4 | 17.7 | 0.00 | 0.00 | 0.00 | 42 | 1011.0 |
| 20260503200105 | 17 | 197 | 19.3 | 43.5 | 0.00 | 0.00 | 0.00 | 42 | 1012.5 |
| 20260503200054 | 17 | 213 | 6.4 | 16.1 | 0.00 | 0.00 | 0.00 | 43 | 1010.9 |
| 20260503195559 | 17 | 225 | 24.1 | 43.5 | 0.00 | 0.00 | 0.00 | 40 | 1012.5 |
| 20260503195540 | 17 | 202 | 8.0 | 16.1 | 0.00 | 0.00 | 0.00 | 41 | 1011.0 |
| 20260503195058 | 17 | 236 | 20.9 | 43.5 | 0.00 | 0.00 | 0.00 | 40 | 1012.5 |
| 20260503195039 | 17 | 245 | 4.8 | 14.5 | 0.00 | 0.00 | 0.00 | 41 | 1011.1 |
| 20260503194558 | 17 | 228 | 19.3 | 37.0 | 0.00 | 0.00 | 0.00 | 41 | 1012.4 |
| 20260503194539 | 17 | 230 | 3.2 | 12.9 | 0.00 | 0.00 | 0.00 | 42 | 1011.0 |
| 20260503194103 | 17 | 223 | 17.7 | 35.4 | 0.00 | 0.00 | 0.00 | 41 | 1012.6 |
| 20260503194038 | 17 | 236 | 6.4 | 14.5 | 0.00 | 0.00 | 0.00 | 42 | 1011.1 |
| 20260503193558 | 17 | 209 | 17.7 | 29.0 | 0.00 | 0.00 | 0.00 | 42 | 1012.7 |
| 20260503193537 | 17 | 238 | 6.4 | 14.5 | 0.00 | 0.00 | 0.00 | 44 | 1011.2 |
| 20260503193111 | 17 | 235 | 16.1 | 35.4 | 0.00 | 0.00 | 0.00 | 40 | 1012.7 |
| 20260503193040 | 17 | 265 | 4.8 | 12.9 | 0.00 | 0.00 | 0.00 | 41 | 1011.2 |
| 20260503192559 | 17 | 217 | 16.1 | 35.4 | 0.00 | 0.00 | 0.00 | 41 | 1012.9 |
| 20260503192536 | 17 | 215 | 4.8 | 17.7 | 0.00 | 0.00 | 0.00 | 41 | 1011.4 |
| 20260503192100 | 17 | 244 | 16.1 | 32.2 | 0.00 | 0.00 | 0.00 | 42 | 1012.9 |
| 20260503192035 | 17 | 246 | 6.4 | 19.3 | 0.00 | 0.00 | 0.00 | 43 | 1011.6 |
| 20260503191608 | 17 | 238 | 12.9 | 32.2 | 0.00 | 0.00 | 0.00 | 41 | 1013.0 |
| 20260503191541 | 17 | 263 | 6.4 | 19.3 | 0.00 | 0.00 | 0.00 | 41 | 1011.5 |
| 20260503191152 | 17 | 243 | 6.4 | 14.5 | 0.00 | 0.00 | 0.00 | 39 | 1011.7 |
| 20260503191100 | 17 | 231 | 11.3 | 32.2 | 0.00 | 0.00 | 0.00 | 39 | 1013.2 |
| 20260503190559 | 17 | 220 | 16.1 | 33.8 | 0.00 | 0.00 | 0.00 | 42 | 1013.3 |
| 20260503190532 | 17 | 234 | 1.6 | 11.3 | 0.00 | 0.00 | 0.00 | 42 | 1011.8 |
| 20260503190100 | 17 | 224 | 17.7 | 33.8 | 0.00 | 0.00 | 0.00 | 41 | 1013.4 |
| 20260503190032 | 17 | 246 | 3.2 | 11.3 | 0.00 | 0.00 | 0.00 | 42 | 1011.9 |
| 20260503185559 | 17 | 218 | 17.7 | 32.2 | 0.00 | 0.00 | 0.00 | 40 | 1013.4 |
| 20260503185531 | 17 | 221 | 3.2 | 14.5 | 0.00 | 0.00 | 0.00 | 40 | 1012.0 |
| 20260503185102 | 17 | 247 | 14.5 | 37.0 | 0.00 | 0.00 | 0.00 | 44 | 1013.5 |
| 20260503185032 | 17 | 256 | 3.2 | 14.5 | 0.00 | 0.00 | 0.00 | 42 | 1012.0 |
| 20260503184939 | 17 | 229 | 17.7 | 46.7 | 0.00 | 0.00 | 0.00 | 41 | 1013.5 |
| 20260503184539 | 17 | 246 | 0.0 | 17.7 | 0.00 | 0.00 | 0.00 | 40 | 1012.0 |
| 20260503184057 | 17 | 246 | 19.3 | 46.7 | 0.00 | 0.00 | 0.00 | 40 | 1013.7 |
| 20260503184030 | 17 | 225 | 4.8 | 19.3 | 0.00 | 0.00 | 0.00 | 40 | 1012.2 |
| 20260503183559 | 17 | 242 | 19.3 | 46.7 | 0.00 | 0.00 | 0.00 | 45 | 1013.6 |
| 20260503183530 | 17 | 290 | 3.2 | 19.3 | 0.00 | 0.00 | 0.00 | 45 | 1012.1 |
| 20260503183109 | 17 | 209 | 19.3 | 46.7 | 0.00 | 0.00 | 0.00 | 43 | 1013.7 |
| 20260503183028 | 17 | 258 | 4.8 | 16.1 | 0.00 | 0.00 | 0.00 | 43 | 1012.2 |
| 20260503182603 | 16 | 190 | 19.3 | 41.8 | 0.00 | 0.00 | 0.00 | 42 | 1013.8 |
| 20260503182528 | 16 | 184 | 0.0 | 16.1 | 0.00 | 0.00 | 0.00 | 42 | 1012.3 |
| 20260503182059 | 17 | 220 | 8.0 | 41.8 | 0.00 | 0.00 | 0.00 | 45 | 1014.0 |
| 20260503182032 | 17 | 265 | 1.6 | 14.5 | 0.00 | 0.00 | 0.00 | 44 | 1012.4 |
| 20260503181611 | 17 | 226 | 17.7 | 40.2 | 0.00 | 0.00 | 0.00 | 42 | 1013.9 |
| 20260503181527 | 17 | 237 | 1.6 | 12.9 | 0.00 | 0.00 | 0.00 | 41 | 1012.4 |
| 20260503181058 | 17 | 216 | 17.7 | 40.2 | 0.00 | 0.00 | 0.00 | 42 | 1014.0 |
| 20260503181027 | 17 | 240 | 0.0 | 17.7 | 0.00 | 0.00 | 0.00 | 44 | 1012.5 |
| 20260503180559 | 16 | 238 | 17.7 | 38.6 | 0.00 | 0.00 | 0.00 | 42 | 1014.1 |
| 20260503180527 | 16 | 260 | 0.0 | 17.7 | 0.00 | 0.00 | 0.00 | 42 | 1012.5 |
| 20260503180100 | 17 | 232 | 22.5 | 38.6 | 0.00 | 0.00 | 0.00 | 40 | 1014.1 |
| 20260503180042 | 17 | 228 | 0.0 | 14.5 | 0.00 | 0.00 | 0.00 | 41 | 1012.6 |
| 20260503175601 | 17 | 221 | 12.9 | 38.6 | 0.00 | 0.00 | 0.00 | 44 | 1014.3 |
| 20260503175525 | 17 | 239 | 0.0 | 14.5 | 0.00 | 0.00 | 0.00 | 44 | 1012.7 |
| 20260503175104 | 17 | 221 | 12.9 | 38.6 | 0.00 | 0.00 | 0.00 | 42 | 1014.2 |
| 20260503175022 | 17 | 236 | 0.0 | 14.5 | 0.00 | 0.00 | 0.00 | 43 | 1012.7 |
| 20260503174603 | 17 | 264 | 16.1 | 38.6 | 0.00 | 0.00 | 0.00 | 43 | 1014.4 |
| 20260503174526 | 17 | 275 | 3.2 | 12.9 | 0.00 | 0.00 | 0.00 | 45 | 1012.9 |
| 20260503174101 | 16 | 232 | 19.3 | 32.2 | 0.00 | 0.00 | 0.00 | 44 | 1014.3 |
| 20260503174021 | 16 | 251 | 0.0 | 8.0 | 0.00 | 0.00 | 0.00 | 42 | 1012.8 |
| 20260503173600 | 17 | 219 | 11.3 | 33.8 | 0.00 | 0.00 | 0.00 | 46 | 1014.5 |
| 20260503173520 | 17 | 252 | 0.0 | 11.3 | 0.00 | 0.00 | 0.00 | 46 | 1012.9 |
| 20260503173103 | 16 | 222 | 12.9 | 33.8 | 0.00 | 0.00 | 0.00 | 46 | 1014.5 |
| 20260503173025 | 16 | 237 | 1.6 | 16.1 | 0.00 | 0.00 | 0.00 | 49 | 1012.9 |
| 20260503172600 | 16 | 227 | 9.7 | 43.5 | 0.00 | 0.00 | 0.00 | 45 | 1014.6 |
| 20260503172517 | 16 | 263 | 3.2 | 16.1 | 0.00 | 0.00 | 0.00 | 45 | 1013.0 |
| 20260503172100 | 16 | 232 | 17.7 | 43.5 | 0.00 | 0.00 | 0.00 | 46 | 1014.7 |
| 20260503172018 | 16 | 254 | 0.0 | 6.4 | 0.00 | 0.00 | 0.00 | 49 | 1013.2 |
| 20260503171559 | 16 | 207 | 14.5 | 43.5 | 0.00 | 0.00 | 0.00 | 45 | 1014.7 |
| 20260503171516 | 17 | 239 | 0.0 | 11.3 | 0.00 | 0.00 | 0.00 | 50 | 1013.1 |
| 20260503171100 | 16 | 241 | 9.7 | 30.6 | 0.00 | 0.00 | 0.00 | 49 | 1014.9 |
| 20260503171014 | 16 | 273 | 0.0 | 14.5 | 0.00 | 0.00 | 0.00 | 52 | 1013.3 |
| 20260503170558 | 16 | 218 | 9.7 | 35.4 | 0.00 | 0.00 | 0.00 | 48 | 1014.9 |
| 20260503170513 | 16 | 242 | 3.2 | 14.5 | 0.00 | 0.00 | 0.00 | 49 | 1013.4 |
| 20260503150558 | 13 | 229 | 11.3 | 27.4 | 0.00 | 0.00 | 0.00 | 57 | 1016.2 |
| 20260503150542 | 13 | 240 | 1.6 | 6.4 | 0.00 | 0.00 | 0.00 | 58 | 1014.6 |
| 20260503150126 | 13 | 234 | 12.9 | 27.4 | 0.00 | 0.00 | 0.00 | 57 | 1016.1 |
| 20260503150122 | 12 | 242 | 11.3 | 30.6 | 0.00 | 0.00 | 0.00 | 59 | 1016.3 |
| 20260503131103 | 8 | 229 | 12.9 | 25.7 | 0.00 | 0.00 | 0.00 | 63 | 1016.5 |
| 20260503131007 | 8 | 263 | 0.0 | 3.2 | 0.00 | 0.00 | 0.00 | 65 | 1015.0 |
| 20260503130557 | 8 | 218 | 11.3 | 25.7 | 0.00 | 0.00 | 0.00 | 64 | 1016.4 |
| 20260503130506 | 8 | 234 | 0.0 | 4.8 | 0.00 | 0.00 | 0.00 | 64 | 1014.9 |
| 20260503110559 | 3 | 217 | 8.0 | 14.5 | 0.00 | 0.00 | 0.00 | 74 | 1016.5 |
| 20260503110538 | 3 | 201 | 0.0 | 0.0 | 0.00 | 0.00 | 0.00 | 75 | 1015.1 |
| 20260503090105 | 3 | 201 | 4.8 | 11.3 | 0.00 | 0.00 | 0.00 | 76 | 1016.6 |
| 20260503081630 | 3 | 241 | 3.2 | 8.0 | 0.00 | 0.00 | 0.00 | 76 | 1016.7 |
| 20260503081535 | 3 | 244 | 0.0 | 0.0 | 0.00 | 0.00 | 0.00 | 77 | 1015.3 |
| 20260503081102 | 3 | 218 | 3.2 | 11.3 | 0.00 | 0.00 | 0.00 | 76 | 1016.8 |
| 20260503081020 | 3 | 244 | 0.0 | 0.0 | 0.00 | 0.00 | 0.00 | 77 | 1015.4 |
| 20260503080601 | 3 | 207 | 4.8 | 11.3 | 0.00 | 0.00 | 0.00 | 76 | 1016.8 |
| 20260503080519 | 3 | 244 | 0.0 | 0.0 | 0.00 | 0.00 | 0.00 | 76 | 1015.4 |
| 20260503080117 | 3 | 209 | 3.2 | 11.3 | 0.00 | 0.00 | 0.00 | 76 | 1016.8 |
| 20260503072601 | 4 | 226 | 4.8 | 12.9 | 0.00 | 0.00 | 0.00 | 75 | 1016.8 |
| 20260503072516 | 4 | 244 | 0.0 | 0.0 | 0.00 | 0.00 | 0.00 | 75 | 1015.4 |
| 20260503072058 | 4 | 234 | 4.8 | 12.9 | 0.00 | 0.00 | 0.00 | 74 | 1016.7 |
| 20260503072014 | 4 | 244 | 0.0 | 0.0 | 0.00 | 0.00 | 0.00 | 74 | 1015.4 |
| 20260503071601 | 4 | 233 | 4.8 | 11.3 | 0.00 | 0.00 | 0.00 | 74 | 1016.7 |
| 20260503071513 | 4 | 244 | 0.0 | 0.0 | 0.00 | 0.00 | 0.00 | 75 | 1015.4 |
| 20260503071101 | 4 | 224 | 4.8 | 11.3 | 0.00 | 0.00 | 0.00 | 74 | 1016.8 |
| 20260503071013 | 4 | 244 | 0.0 | 0.0 | 0.00 | 0.00 | 0.00 | 75 | 1015.4 |
| 20260503070602 | 4 | 206 | 4.8 | 14.5 | 0.00 | 0.00 | 0.00 | 74 | 1016.8 |
| 20260503070513 | 4 | 244 | 0.0 | 0.0 | 0.00 | 0.00 | 0.00 | 75 | 1015.5 |
| 20260503070106 | 4 | 236 | 6.4 | 14.5 | 0.00 | 0.00 | 0.00 | 74 | 1016.7 |
| 20260503060104 | 5 | 215 | 6.4 | 12.9 | 0.00 | 0.00 | 0.00 | 72 | 1017.2 |
| 20260503055059 | 5 | 231 | 6.4 | 12.9 | 0.00 | 0.00 | 0.00 | 72 | 1017.2 |
| 20260503055004 | 5 | 244 | 0.0 | 0.0 | 0.00 | 0.00 | 0.00 | 72 | 1015.7 |
| 20260503054604 | 5 | 215 | 4.8 | 12.9 | 0.00 | 0.00 | 0.00 | 71 | 1017.2 |
| 20260503054509 | 5 | 244 | 0.0 | 0.0 | 0.00 | 0.00 | 0.00 | 72 | 1015.7 |
| 20260503054100 | 5 | 215 | 4.8 | 12.9 | 0.00 | 0.00 | 0.00 | 71 | 1017.3 |
| 20260503054002 | 5 | 244 | 0.0 | 1.6 | 0.00 | 0.00 | 0.00 | 72 | 1015.8 |
| 20260503053558 | 5 | 226 | 4.8 | 14.5 | 0.00 | 0.00 | 0.00 | 71 | 1017.2 |
| 20260503053510 | 5 | 244 | 0.0 | 1.6 | 0.00 | 0.00 | 0.00 | 72 | 1015.8 |
| 20260503053101 | 5 | 296 | 0.0 | 0.0 | 0.00 | 0.00 | 0.00 | 71 | 1015.8 |
| 20260503053058 | 5 | 231 | 6.4 | 14.5 | 0.00 | 0.00 | 0.00 | 70 | 1017.2 |
| 20260503052559 | 5 | 297 | 0.0 | 0.0 | 0.00 | 0.00 | 0.00 | 71 | 1015.9 |
| 20260503052556 | 5 | 217 | 6.4 | 14.5 | 0.00 | 0.00 | 0.00 | 71 | 1017.2 |
| 20260503052103 | 5 | 297 | 0.0 | 0.0 | 0.00 | 0.00 | 0.00 | 71 | 1015.8 |
| 20260503052057 | 5 | 234 | 4.8 | 14.5 | 0.00 | 0.00 | 0.00 | 71 | 1017.3 |
| 20260503051559 | 5 | 232 | 4.8 | 12.9 | 0.00 | 0.00 | 0.00 | 71 | 1017.2 |
| 20260503051058 | 5 | 297 | 0.0 | 0.0 | 0.00 | 0.00 | 0.00 | 72 | 1015.9 |
| 20260503050558 | 5 | 226 | 4.8 | 12.9 | 0.00 | 0.00 | 0.00 | 72 | 1017.2 |
| 20260503050100 | 5 | 227 | 4.8 | 9.7 | 0.00 | 0.00 | 0.00 | 72 | 1017.3 |
| 20260503050058 | 5 | 297 | 0.0 | 0.0 | 0.00 | 0.00 | 0.00 | 72 | 1016.1 |
| 20260503045559 | 5 | 223 | 4.8 | 12.9 | 0.00 | 0.00 | 0.00 | 71 | 1017.3 |
| 20260503045557 | 5 | 297 | 0.0 | 0.0 | 0.00 | 0.00 | 0.00 | 72 | 1016.1 |
| 20260503045059 | 5 | 297 | 0.0 | 0.0 | 0.00 | 0.00 | 0.00 | 71 | 1016.1 |
| 20260503044611 | 5 | 234 | 4.8 | 12.9 | 0.00 | 0.00 | 0.00 | 71 | 1017.2 |
| 20260503044608 | 5 | 297 | 0.0 | 0.0 | 0.00 | 0.00 | 0.00 | 72 | 1016.1 |
| 20260503044057 | 6 | 229 | 3.2 | 8.0 | 0.00 | 0.00 | 0.00 | 70 | 1017.3 |
| 20260503043558 | 6 | 230 | 3.2 | 11.3 | 0.00 | 0.00 | 0.00 | 71 | 1017.3 |
| 20260503043554 | 6 | 297 | 0.0 | 0.0 | 0.00 | 0.00 | 0.00 | 71 | 1015.9 |
| 20260503043102 | 6 | 233 | 3.2 | 11.3 | 0.00 | 0.00 | 0.00 | 70 | 1017.3 |
| 20260503043058 | 6 | 297 | 0.0 | 0.0 | 0.00 | 0.00 | 0.00 | 71 | 1015.9 |
| 20260503042558 | 6 | 225 | 3.2 | 9.7 | 0.00 | 0.00 | 0.00 | 70 | 1017.3 |
| 20260503042552 | 6 | 297 | 0.0 | 0.0 | 0.00 | 0.00 | 0.00 | 70 | 1015.9 |
| 20260503042057 | 6 | 217 | 3.2 | 6.4 | 0.00 | 0.00 | 0.00 | 70 | 1017.3 |
| 20260503042052 | 6 | 297 | 0.0 | 0.0 | 0.00 | 0.00 | 0.00 | 70 | 1016.0 |
| 20260503041558 | 6 | 223 | 3.2 | 6.4 | 0.00 | 0.00 | 0.00 | 70 | 1017.3 |
| 20260503041551 | 6 | 297 | 0.0 | 0.0 | 0.00 | 0.00 | 0.00 | 70 | 1016.0 |
| 20260503041058 | 6 | 217 | 3.2 | 8.0 | 0.00 | 0.00 | 0.00 | 69 | 1017.3 |
| 20260503041051 | 6 | 297 | 0.0 | 0.0 | 0.00 | 0.00 | 0.00 | 70 | 1016.1 |
| 20260503040557 | 6 | 224 | 3.2 | 8.0 | 0.00 | 0.00 | 0.00 | 69 | 1017.3 |
| 20260503040551 | 6 | 297 | 0.0 | 0.0 | 0.00 | 0.00 | 0.00 | 69 | 1016.0 |
| 20260503040052 | 6 | 297 | 0.0 | 0.0 | 0.00 | 0.00 | 0.00 | 69 | 1016.1 |
| 20260503035557 | 6 | 241 | 3.2 | 8.0 | 0.00 | 0.00 | 0.00 | 68 | 1017.5 |
| 20260503035546 | 6 | 297 | 0.0 | 0.0 | 0.00 | 0.00 | 0.00 | 69 | 1016.2 |
| 20260503035059 | 6 | 227 | 1.6 | 8.0 | 0.00 | 0.00 | 0.00 | 68 | 1017.4 |
| 20260503035046 | 6 | 297 | 0.0 | 0.0 | 0.00 | 0.00 | 0.00 | 69 | 1016.2 |
| 20260503034558 | 6 | 226 | 3.2 | 6.4 | 0.00 | 0.00 | 0.00 | 68 | 1017.4 |
| 20260503034100 | 6 | 234 | 3.2 | 11.3 | 0.00 | 0.00 | 0.00 | 68 | 1017.4 |
| 20260503034046 | 6 | 297 | 0.0 | 0.0 | 0.00 | 0.00 | 0.00 | 68 | 1016.1 |
| 20260503033558 | 6 | 223 | 3.2 | 11.3 | 0.00 | 0.00 | 0.00 | 67 | 1017.4 |
| 20260503033545 | 6 | 297 | 0.0 | 0.0 | 0.00 | 0.00 | 0.00 | 68 | 1016.1 |
| 20260503033138 | 6 | 219 | 3.2 | 11.3 | 0.00 | 0.00 | 0.00 | 67 | 1017.4 |
| 20260503033045 | 6 | 297 | 0.0 | 0.0 | 0.00 | 0.00 | 0.00 | 68 | 1016.1 |
| 20260503032558 | 6 | 244 | 3.2 | 11.3 | 0.00 | 0.00 | 0.00 | 67 | 1017.5 |
| 20260503032545 | 6 | 297 | 0.0 | 0.0 | 0.00 | 0.00 | 0.00 | 67 | 1016.1 |
| 20260503032100 | 6 | 231 | 3.2 | 11.3 | 0.00 | 0.00 | 0.00 | 67 | 1017.5 |
| 20260503032045 | 6 | 297 | 0.0 | 0.0 | 0.00 | 0.00 | 0.00 | 67 | 1016.2 |
| 20260503031602 | 6 | 234 | 3.2 | 11.3 | 0.00 | 0.00 | 0.00 | 67 | 1017.4 |
| 20260503031545 | 6 | 297 | 0.0 | 0.0 | 0.00 | 0.00 | 0.00 | 67 | 1016.1 |
| 20260503031100 | 7 | 234 | 3.2 | 11.3 | 0.00 | 0.00 | 0.00 | 66 | 1017.5 |
| 20260503031045 | 7 | 297 | 0.0 | 0.0 | 0.00 | 0.00 | 0.00 | 67 | 1016.1 |
| 20260503030603 | 7 | 240 | 3.2 | 9.7 | 0.00 | 0.00 | 0.00 | 66 | 1017.5 |
| 20260503030544 | 7 | 297 | 0.0 | 0.0 | 0.00 | 0.00 | 0.00 | 67 | 1016.2 |
| 20260503030110 | 7 | 221 | 3.2 | 8.0 | 0.00 | 0.00 | 0.00 | 67 | 1017.6 |
| 20260503030106 | 7 | 297 | 0.0 | 0.0 | 0.00 | 0.00 | 0.00 | 67 | 1016.2 |
| 20260503025559 | 7 | 240 | 1.6 | 6.4 | 0.00 | 0.00 | 0.00 | 67 | 1017.5 |
| 20260503025546 | 7 | 297 | 0.0 | 0.0 | 0.00 | 0.00 | 0.00 | 67 | 1016.3 |
| 20260503025059 | 7 | 236 | 3.2 | 6.4 | 0.00 | 0.00 | 0.00 | 66 | 1017.5 |
| 20260503025047 | 7 | 297 | 0.0 | 0.0 | 0.00 | 0.00 | 0.00 | 67 | 1016.3 |
| 20260503024624 | 7 | 235 | 3.2 | 6.4 | 0.00 | 0.00 | 0.00 | 66 | 1017.5 |
| 20260503024543 | 7 | 297 | 0.0 | 0.0 | 0.00 | 0.00 | 0.00 | 67 | 1016.4 |
| 20260503024103 | 7 | 237 | 1.6 | 6.4 | 0.00 | 0.00 | 0.00 | 66 | 1017.6 |
| 20260503024044 | 7 | 297 | 0.0 | 0.0 | 0.00 | 0.00 | 0.00 | 67 | 1016.2 |
| 20260503023600 | 7 | 238 | 1.6 | 8.0 | 0.00 | 0.00 | 0.00 | 66 | 1017.6 |
| 20260503023546 | 7 | 297 | 0.0 | 0.0 | 0.00 | 0.00 | 0.00 | 66 | 1016.4 |
| 20260503023111 | 7 | 242 | 3.2 | 8.0 | 0.00 | 0.00 | 0.00 | 66 | 1017.7 |
| 20260503023044 | 7 | 297 | 0.0 | 0.0 | 0.00 | 0.00 | 0.00 | 66 | 1016.5 |
| 20260503022559 | 7 | 236 | 1.6 | 6.4 | 0.00 | 0.00 | 0.00 | 67 | 1017.7 |
| 20260503022542 | 7 | 297 | 0.0 | 0.0 | 0.00 | 0.00 | 0.00 | 67 | 1016.5 |
| 20260503022059 | 7 | 227 | 1.6 | 8.0 | 0.00 | 0.00 | 0.00 | 66 | 1017.8 |
| 20260503022043 | 7 | 297 | 0.0 | 0.0 | 0.00 | 0.00 | 0.00 | 66 | 1016.4 |
| 20260503021601 | 7 | 233 | 3.2 | 8.0 | 0.00 | 0.00 | 0.00 | 66 | 1017.7 |
| 20260503021543 | 7 | 297 | 0.0 | 0.0 | 0.00 | 0.00 | 0.00 | 66 | 1016.4 |
| 20260503021100 | 7 | 233 | 1.6 | 8.0 | 0.00 | 0.00 | 0.00 | 66 | 1017.7 |
| 20260503021042 | 7 | 297 | 0.0 | 0.0 | 0.00 | 0.00 | 0.00 | 66 | 1016.4 |
| 20260503020559 | 7 | 228 | 3.2 | 8.0 | 0.00 | 0.00 | 0.00 | 65 | 1017.7 |
| 20260503020542 | 7 | 297 | 0.0 | 0.0 | 0.00 | 0.00 | 0.00 | 65 | 1016.5 |
| 20260503020056 | 7 | 229 | 1.6 | 6.4 | 0.00 | 0.00 | 0.00 | 66 | 1017.7 |
| 20260503020041 | 7 | 297 | 0.0 | 0.0 | 0.00 | 0.03 | 0.00 | 66 | 1016.5 |
| 20260503015559 | 7 | 232 | 1.6 | 6.4 | 0.00 | 0.03 | 0.00 | 66 | 1017.6 |
| 20260503015542 | 7 | 297 | 0.0 | 0.0 | 0.00 | 0.03 | 0.00 | 67 | 1016.5 |
| 20260503015059 | 7 | 233 | 1.6 | 6.4 | 0.00 | 0.03 | 0.00 | 66 | 1017.7 |
| 20260503015041 | 7 | 297 | 0.0 | 0.0 | 0.00 | 0.03 | 0.00 | 67 | 1016.5 |
| 20260503014604 | 7 | 236 | 1.6 | 4.8 | 0.00 | 0.03 | 0.00 | 65 | 1017.6 |
| 20260503014556 | 7 | 297 | 0.0 | 0.0 | 0.00 | 0.03 | 0.00 | 66 | 1016.5 |
| 20260503014056 | 7 | 232 | 1.6 | 4.8 | 0.00 | 0.03 | 0.00 | 65 | 1017.6 |
| 20260503014039 | 7 | 297 | 0.0 | 0.0 | 0.00 | 0.03 | 0.00 | 66 | 1016.4 |
| 20260503013600 | 7 | 234 | 1.6 | 6.4 | 0.00 | 0.03 | 0.00 | 64 | 1017.5 |
| 20260503013539 | 7 | 297 | 0.0 | 0.0 | 0.00 | 0.03 | 0.00 | 65 | 1016.4 |
| 20260503013100 | 7 | 238 | 1.6 | 6.4 | 0.00 | 0.03 | 0.00 | 63 | 1017.5 |
| 20260503013039 | 7 | 297 | 0.0 | 0.0 | 0.00 | 0.03 | 0.00 | 64 | 1016.4 |
| 20260503012600 | 7 | 237 | 1.6 | 6.4 | 0.00 | 0.03 | 0.00 | 62 | 1017.5 |
| 20260503012539 | 7 | 297 | 0.0 | 0.0 | 0.00 | 0.03 | 0.00 | 63 | 1016.3 |
| 20260503012100 | 7 | 237 | 3.2 | 8.0 | 0.00 | 0.03 | 0.00 | 60 | 1017.4 |
| 20260503012041 | 7 | 297 | 0.0 | 0.0 | 0.00 | 0.03 | 0.00 | 59 | 1016.2 |
| 20260503011605 | 7 | 234 | 3.2 | 8.0 | 0.00 | 0.03 | 0.00 | 58 | 1017.4 |
| 20260503011547 | 7 | 297 | 0.0 | 0.0 | 0.00 | 0.03 | 0.00 | 59 | 1016.2 |
| 20260503011100 | 7 | 239 | 3.2 | 8.0 | 0.00 | 0.03 | 0.00 | 58 | 1017.4 |
| 20260503011038 | 7 | 297 | 0.0 | 0.0 | 0.00 | 0.03 | 0.00 | 58 | 1016.1 |
| 20260503010559 | 7 | 250 | 3.2 | 8.0 | 0.00 | 0.03 | 0.00 | 58 | 1017.3 |
| 20260503010538 | 7 | 297 | 0.0 | 0.0 | 0.00 | 0.03 | 0.00 | 58 | 1016.2 |
| 20260503010057 | 7 | 241 | 1.6 | 8.0 | 0.00 | 0.03 | 0.00 | 58 | 1017.3 |
| 20260503010038 | 7 | 297 | 0.0 | 0.0 | 0.00 | 0.15 | 0.00 | 59 | 1016.2 |
| 20260503005557 | 7 | 234 | 1.6 | 8.0 | 0.00 | 0.15 | 0.00 | 58 | 1017.3 |
| 20260503005540 | 7 | 297 | 0.0 | 0.0 | 0.00 | 0.15 | 0.00 | 58 | 1016.1 |
| 20260503005058 | 7 | 244 | 1.6 | 6.4 | 0.00 | 0.15 | 0.00 | 58 | 1017.4 |
| 20260503005038 | 7 | 297 | 0.0 | 0.0 | 0.00 | 0.15 | 0.00 | 58 | 1016.1 |
| 20260503004618 | 7 | 254 | 1.6 | 6.4 | 0.00 | 0.15 | 0.00 | 58 | 1017.4 |
| 20260503004539 | 7 | 297 | 0.0 | 0.0 | 0.00 | 0.15 | 0.00 | 60 | 1016.1 |
| 20260503004102 | 7 | 250 | 1.6 | 6.4 | 0.00 | 0.15 | 0.00 | 59 | 1017.4 |
| 20260503004037 | 7 | 297 | 0.0 | 0.0 | 0.00 | 0.15 | 0.00 | 59 | 1016.1 |
| 20260503003559 | 7 | 244 | 1.6 | 6.4 | 0.00 | 0.15 | 0.00 | 58 | 1017.3 |
| 20260503003537 | 7 | 297 | 0.0 | 0.0 | 0.00 | 0.15 | 0.00 | 59 | 1016.0 |
| 20260503003058 | 7 | 244 | 1.6 | 8.0 | 0.00 | 0.15 | 0.00 | 59 | 1017.4 |
| 20260503003046 | 7 | 297 | 0.0 | 0.0 | 0.00 | 0.15 | 0.00 | 59 | 1016.0 |
| 20260503002601 | 7 | 253 | 3.2 | 8.0 | 0.00 | 0.15 | 0.00 | 59 | 1017.3 |
| 20260503002539 | 7 | 297 | 0.0 | 0.0 | 0.00 | 0.15 | 0.00 | 59 | 1016.1 |
| 20260503002059 | 7 | 244 | 3.2 | 8.0 | 0.00 | 0.15 | 0.00 | 58 | 1017.3 |
| 20260503002039 | 7 | 297 | 0.0 | 0.0 | 0.00 | 0.15 | 0.00 | 59 | 1016.0 |
| 20260503001603 | 7 | 0 | 3.2 | 8.0 | 0.00 | 0.15 | 0.00 | 57 | 1017.3 |
| 20260503001536 | 7 | 297 | 0.0 | 0.0 | 0.00 | 0.15 | 0.00 | 58 | 1016.1 |
| 20260503001104 | 7 | 238 | 1.6 | 6.4 | 0.00 | 0.15 | 0.00 | 57 | 1017.3 |
| 20260503001039 | 7 | 297 | 0.0 | 0.0 | 0.00 | 0.15 | 0.00 | 58 | 1016.0 |
| 20260503000556 | 7 | 240 | 3.2 | 6.4 | 0.00 | 0.15 | 0.00 | 57 | 1017.3 |
| 20260503000536 | 7 | 297 | 0.0 | 0.0 | 0.00 | 0.15 | 0.00 | 58 | 1016.1 |
| 20260503000108 | 7 | 235 | 1.6 | 8.0 | 0.00 | 0.15 | 0.00 | 58 | 1017.3 |
| 20260503000036 | 7 | 297 | 0.0 | 0.0 | 0.00 | 0.18 | 0.00 | 58 | 1016.0 |
| 20260502235557 | 7 | 228 | 3.2 | 8.0 | 0.00 | 0.18 | 0.00 | 58 | 1017.3 |
| 20260502235535 | 7 | 297 | 0.0 | 0.0 | 0.00 | 0.18 | 0.00 | 58 | 1016.0 |
| 20260502235057 | 8 | 247 | 1.6 | 6.4 | 0.00 | 0.18 | 0.00 | 58 | 1017.4 |
| 20260502235035 | 8 | 297 | 0.0 | 0.0 | 0.00 | 0.18 | 0.00 | 59 | 1016.0 |
| 20260502234615 | 8 | 239 | 1.6 | 6.4 | 0.00 | 0.18 | 0.00 | 58 | 1017.4 |
| 20260502234535 | 8 | 297 | 0.0 | 0.0 | 0.00 | 0.18 | 0.00 | 58 | 1016.0 |
| 20260502234102 | 8 | 0 | 0.0 | 6.4 | 0.00 | 0.18 | 0.00 | 54 | 1017.3 |
| 20260502234035 | 8 | 297 | 0.0 | 0.0 | 0.00 | 0.18 | 0.00 | 54 | 1016.0 |
| 20260502233601 | 8 | 266 | 1.6 | 6.4 | 0.00 | 0.18 | 0.00 | 54 | 1017.3 |
| 20260502233534 | 8 | 297 | 0.0 | 0.0 | 0.00 | 0.18 | 0.00 | 56 | 1016.0 |
| 20260502233111 | 8 | 0 | 0.0 | 8.0 | 0.00 | 0.18 | 0.00 | 53 | 1017.4 |
| 20260502233035 | 8 | 297 | 0.0 | 0.0 | 0.00 | 0.18 | 0.00 | 55 | 1016.0 |
| 20260502232601 | 8 | 260 | 3.2 | 8.0 | 0.00 | 0.18 | 0.00 | 52 | 1017.3 |
| 20260502232534 | 8 | 297 | 0.0 | 0.0 | 0.00 | 0.18 | 0.00 | 52 | 1016.0 |
| 20260502232101 | 8 | 261 | 3.2 | 8.0 | 0.00 | 0.18 | 0.00 | 53 | 1017.3 |
| 20260502232034 | 8 | 297 | 0.0 | 3.2 | 0.00 | 0.18 | 0.00 | 53 | 1016.0 |
| 20260502231611 | 8 | 248 | 1.6 | 9.7 | 0.00 | 0.18 | 0.00 | 54 | 1017.4 |
| 20260502231534 | 8 | 297 | 0.0 | 3.2 | 0.00 | 0.18 | 0.00 | 55 | 1015.8 |
| 20260502231101 | 8 | 228 | 3.2 | 11.3 | 0.00 | 0.18 | 0.00 | 53 | 1017.4 |
| 20260502231034 | 8 | 297 | 0.0 | 0.0 | 0.00 | 0.18 | 0.00 | 54 | 1015.8 |
| 20260502230601 | 8 | 242 | 3.2 | 11.3 | 0.00 | 0.18 | 0.00 | 57 | 1017.4 |
| 20260502230536 | 8 | 297 | 0.0 | 0.0 | 0.00 | 0.18 | 0.00 | 56 | 1016.0 |
| 20260502230059 | 8 | 234 | 3.2 | 14.5 | 0.00 | 0.18 | 0.00 | 55 | 1017.4 |
| 20260502230034 | 8 | 297 | 0.0 | 0.0 | 0.00 | 0.18 | 0.00 | 55 | 1016.0 |
| 20260502225600 | 8 | 266 | 3.2 | 14.5 | 0.00 | 0.18 | 0.00 | 53 | 1017.5 |
| 20260502225533 | 8 | 297 | 0.0 | 0.0 | 0.00 | 0.18 | 0.00 | 53 | 1016.0 |